Time,TemperatureF,DewpointF,PressureIn,WindDirection,WindDirectionDegrees,WindSpeedMPH,WindSpeedGustMPH,Humidity,HourlyPrecipIn,Conditions,Clouds,dailyrainin,SoftwareType,DateUTC
2013-06-22 00:01:00,55.4,17.1,29.75,NE,34,0.0,0.0,22,0.00,,,0.00,Wunderground v.1.15,2013-06-22 06:01:00,
2013-06-22 00:31:00,54.1,17.1,29.75,NE,35,2.0,2.0,23,0.00,,,0.00,Wunderground v.1.15,2013-06-22 06:31:00,
2013-06-22 01:00:00,50.4,16.8,29.78,NE,35,2.0,2.0,26,0.00,,,0.00,Wunderground v.1.15,2013-06-22 07:00:00,
2013-06-22 01:31:00,51.1,15.5,29.76,NE,35,1.0,1.0,24,0.00,,,0.00,Wunderground v.1.15,2013-06-22 07:31:00,
2013-06-22 02:01:00,50.8,16.2,29.76,NE,48,3.0,3.0,25,0.00,,,0.00,Wunderground v.1.15,2013-06-22 08:01:00,
2013-06-22 02:31:00,52.6,16.8,29.73,NE,48,1.0,2.0,24,0.00,,,0.00,Wunderground v.1.15,2013-06-22 08:31:00,
2013-06-22 03:01:00,52.9,16.1,29.73,NE,48,1.0,1.0,23,0.00,,,0.00,Wunderground v.1.15,2013-06-22 09:01:00,
2013-06-22 03:31:00,50.8,15.2,29.75,NE,48,1.0,2.0,24,0.00,,,0.00,Wunderground v.1.15,2013-06-22 09:31:00,
2013-06-22 04:01:00,49.6,15.2,29.75,NE,48,1.0,1.0,25,0.00,,,0.00,Wunderground v.1.15,2013-06-22 10:01:00,
2013-06-22 04:30:00,48.0,16.4,29.77,NE,48,1.0,1.0,28,0.00,,,0.00,Wunderground v.1.15,2013-06-22 10:30:00,
2013-06-22 05:01:00,47.7,16.9,29.77,NE,48,1.0,3.0,29,0.00,,,0.00,Wunderground v.1.15,2013-06-22 11:01:00,
2013-06-22 05:31:00,47.3,15.8,29.80,NE,48,1.0,1.0,28,0.00,,,0.00,Wunderground v.1.15,2013-06-22 11:31:00,
2013-06-22 06:00:00,48.2,17.4,29.79,NE,48,0.0,0.0,29,0.00,,,0.00,Wunderground v.1.15,2013-06-22 12:00:00,
2013-06-22 06:31:00,47.0,18.6,29.81,NE,48,0.0,0.0,32,0.00,,,0.00,Wunderground v.1.15,2013-06-22 12:31:00,
2013-06-22 07:01:00,46.2,20.0,29.83,NE,48,2.0,2.0,35,0.00,,,0.00,Wunderground v.1.15,2013-06-22 13:01:00,
2013-06-22 07:31:00,51.6,26.8,29.79,NE,48,0.0,0.0,38,0.00,,,0.00,Wunderground v.1.15,2013-06-22 13:31:00,
2013-06-22 08:01:00,58.9,23.1,29.75,NE,48,1.0,1.0,25,0.00,,,0.00,Wunderground v.1.15,2013-06-22 14:01:00,
2013-06-22 08:30:00,64.7,17.4,29.75,SSE,168,3.0,3.0,16,0.00,,,0.00,Wunderground v.1.15,2013-06-22 14:30:00,
2013-06-22 09:01:00,65.5,16.6,29.76,South,171,4.0,5.0,15,0.00,,,0.00,Wunderground v.1.15,2013-06-22 15:01:00,
2013-06-22 09:30:00,67.1,19.4,29.81,SSW,213,5.0,7.0,16,0.00,,,0.00,Wunderground v.1.15,2013-06-22 15:30:00,
2013-06-22 10:00:00,68.1,18.7,29.82,SSE,160,4.0,4.0,15,0.00,,,0.00,Wunderground v.1.15,2013-06-22 16:00:00,
2013-06-22 10:31:00,69.6,21.4,29.79,SW,215,3.0,6.0,16,0.00,,,0.00,Wunderground v.1.15,2013-06-22 16:31:00,
2013-06-22 11:01:00,70.3,21.9,29.80,SSW,196,5.0,5.0,16,0.00,,,0.00,Wunderground v.1.15,2013-06-22 17:01:00,
2013-06-22 11:31:00,70.9,17.5,29.81,SSE,158,8.0,8.0,13,0.00,,,0.00,Wunderground v.1.15,2013-06-22 17:31:00,
2013-06-22 12:01:00,72.5,14.9,29.79,SSW,209,7.0,7.0,11,0.00,,,0.00,Wunderground v.1.15,2013-06-22 18:01:00,
2013-06-22 12:31:00,72.1,10.1,29.84,SSE,167,9.0,9.0,9,0.00,,,0.00,Wunderground v.1.15,2013-06-22 18:31:00,
2013-06-22 13:01:00,73.5,17.7,29.81,SW,236,7.0,8.0,12,0.00,,,0.00,Wunderground v.1.15,2013-06-22 19:01:00,
2013-06-22 13:30:00,74.0,11.5,29.81,SSW,200,8.0,10.0,9,0.00,,,0.00,Wunderground v.1.15,2013-06-22 19:30:00,
2013-06-22 14:01:00,75.6,12.7,29.78,SW,227,7.0,7.0,9,0.00,,,0.00,Wunderground v.1.15,2013-06-22 20:01:00,
2013-06-22 14:31:00,74.9,16.8,29.76,SSE,150,11.0,12.0,11,0.00,,,0.00,Wunderground v.1.15,2013-06-22 20:31:00,
2013-06-22 15:00:00,75.8,17.5,29.75,South,174,10.0,14.0,11,0.00,,,0.00,Wunderground v.1.15,2013-06-22 21:00:00,
2013-06-22 15:31:00,76.8,18.3,29.75,NE,52,11.0,11.0,11,0.00,,,0.00,Wunderground v.1.15,2013-06-22 21:31:00,
2013-06-22 16:01:00,77.2,11.3,29.74,South,171,8.0,8.0,8,0.00,,,0.00,Wunderground v.1.15,2013-06-22 22:01:00,
2013-06-22 16:31:00,76.8,13.6,29.75,ESE,110,11.0,11.0,9,0.00,,,0.00,Wunderground v.1.15,2013-06-22 22:31:00,
2013-06-22 17:01:00,76.7,13.6,29.75,SSE,164,8.0,11.0,9,0.00,,,0.00,Wunderground v.1.15,2013-06-22 23:01:00,
2013-06-22 17:31:00,77.4,14.1,29.72,SSE,161,5.0,5.0,9,0.00,,,0.00,Wunderground v.1.15,2013-06-22 23:31:00,
2013-06-22 18:01:00,75.8,15.3,29.73,SSW,210,8.0,11.0,10,0.00,,,0.00,Wunderground v.1.15,2013-06-23 00:01:00,
2013-06-22 18:31:00,76.0,15.4,29.74,South,174,6.0,6.0,10,0.00,,,0.00,Wunderground v.1.15,2013-06-23 00:31:00,
2013-06-22 19:01:00,74.9,14.6,29.76,WSW,243,3.0,3.0,10,0.00,,,0.00,Wunderground v.1.15,2013-06-23 01:01:00,
2013-06-22 19:30:00,73.2,13.3,29.67,SW,232,2.0,3.0,10,0.00,,,0.00,Wunderground v.1.15,2013-06-23 01:30:00,
2013-06-22 20:01:00,72.1,16.6,29.68,SSE,164,2.0,5.0,12,0.00,,,0.00,Wunderground v.1.15,2013-06-23 02:01:00,
2013-06-22 20:31:00,71.3,11.8,29.66,WNW,299,2.0,2.0,10,0.00,,,0.00,Wunderground v.1.15,2013-06-23 02:31:00,
2013-06-22 21:01:00,66.9,14.4,29.68,SE,134,0.0,0.0,13,0.00,,,0.00,Wunderground v.1.15,2013-06-23 03:01:00,
2013-06-22 21:31:00,62.0,16.6,29.72,SE,134,0.0,0.0,17,0.00,,,0.00,Wunderground v.1.15,2013-06-23 03:31:00,
2013-06-22 22:01:00,58.9,15.4,29.76,NE,41,2.0,2.0,18,0.00,,,0.00,Wunderground v.1.15,2013-06-23 04:01:00,
2013-06-22 22:31:00,57.0,15.1,29.77,NE,42,2.0,2.0,19,0.00,,,0.00,Wunderground v.1.15,2013-06-23 04:31:00,
2013-06-22 23:01:00,55.6,13.9,29.77,NE,40,3.0,3.0,19,0.00,,,0.00,Wunderground v.1.15,2013-06-23 05:01:00,
2013-06-22 23:31:00,55.7,14.0,29.75,NNE,31,6.0,6.0,19,0.00,,,0.00,Wunderground v.1.15,2013-06-23 05:31:00,